TimeEDT,TemperatureF,Dew PointF,Humidity,Sea Level PressureIn,VisibilityMPH,Wind Direction,Wind SpeedMPH,Gust SpeedMPH,PrecipitationIn,Events,Conditions,WindDirDegrees,DateUTC
12:00 AM,40.5,31.8,71,30.45,-9999.0,NNW,3.5,-,N/A,,Unknown,330,2012-10-13 04:00:00
1:00 AM,38.8,28.8,67,30.44,-9999.0,NNW,4.6,-,N/A,,Unknown,330,2012-10-13 05:00:00
2:00 AM,38,29,61,30.44,,WNW,2.3,,,,,300,2012-10-13 06:00:00
2:00 AM,38.5,29.3,70,30.44,-9999.0,WNW,2.3,-,N/A,,Unknown,300,2012-10-13 06:00:00
3:00 AM,39.9,33.6,78,30.43,-9999.0,West,2.3,-,N/A,,Unknown,260,2012-10-13 07:00:00
5:00 AM,38.3,28.6,68,30.41,-9999.0,NW,3.5,-,N/A,,Unknown,320,2012-10-13 09:00:00
6:00 AM,37.9,29.3,71,30.41,-9999.0,NW,2.3,-,N/A,,Unknown,320,2012-10-13 10:00:00
7:00 AM,36.7,28.9,74,30.41,-9999.0,WNW,2.3,-,N/A,,Unknown,290,2012-10-13 11:00:00
8:00 AM,38,32,70,30.40,,WNW,3.5,,,,,290,2012-10-13 12:00:00
8:00 AM,37.9,31.6,78,30.40,-9999.0,WNW,3.5,-,N/A,,Unknown,290,2012-10-13 12:00:00
9:00 AM,41.9,33.6,72,30.40,-9999.0,SSE,2.3,-,N/A,,Unknown,160,2012-10-13 13:00:00
10:00 AM,44.6,31.1,59,30.39,-9999.0,ESE,4.6,-,N/A,,Unknown,120,2012-10-13 14:00:00
11:00 AM,47.3,29.8,51,30.37,-9999.0,SE,10.4,-,N/A,,Unknown,140,2012-10-13 15:00:00
12:00 PM,49.3,30.2,48,30.34,-9999.0,SSE,5.8,-,N/A,,Unknown,160,2012-10-13 16:00:00
2:00 PM,50,33,40,30.26,,SE,11.5,,,,,130,2012-10-13 18:00:00
2:00 PM,50.4,33.3,52,30.26,-9999.0,SE,11.5,-,N/A,,Unknown,130,2012-10-13 18:00:00
3:00 PM,51.3,35.2,54,30.23,-9999.0,SSE,10.4,-,N/A,,Unknown,150,2012-10-13 19:00:00
4:00 PM,51.4,35.8,55,30.17,-9999.0,SSE,17.3,-,N/A,,Unknown,160,2012-10-13 20:00:00
5:00 PM,49.3,39.6,69,30.14,-9999.0,SE,8.1,-,N/A,,Unknown,140,2012-10-13 21:00:00
6:00 PM,48.7,40.5,73,30.10,-9999.0,ESE,10.4,-,N/A,,Unknown,110,2012-10-13 22:00:00
8:00 PM,48,42,71,30.03,,East,9.2,,,,,100,2012-10-14 00:00:00
9:00 PM,47.5,43.2,85,29.99,-9999.0,ENE,5.8,-,N/A,,Unknown,70,2012-10-14 01:00:00
10:00 PM,46.2,44.4,93,29.96,-9999.0,North,8.1,-,N/A,,Unknown,10,2012-10-14 02:00:00
11:00 PM,47.3,45.7,94,29.94,-9999.0,NE,4.6,-,N/A,,Unknown,50,2012-10-14 03:00:00